This demonstration page uses our WeatherBlox Daily Observations layout. Learn more.

36.19886, -115.1175

Hourly Observations for November 28, 2018

Temp ( °F °C ) Dew Point ( °F °C ) Humidity (%) Winds ( mph kmh ) Pressure ( in mb ) Visibility ( mi km ) Precip ( " mm )
12:53 am 00:53 Clear 45 7.2 18 -7.8 34 34 NW 5 7 30 1016 10 16.09344 0 0
1:53 am 01:53 Clear 45 7.2 19 -7.2 35 35 N 6 9 30 1016 10 16.09344 0 0
2:53 am 02:53 Clear 45 7.2 16 -8.9 31 31 NW 6 9 29.97 1015 10 16.09344 0 0
3:53 am 03:53 Clear 43 6.1 18 -7.8 37 37 NNW 3 6 29.97 1015 10 16.09344 0 0
4:53 am 04:53 Clear 43 6.1 18 -7.8 37 37 NNW 5 7 29.94 1014 10 16.09344 0 0
5:53 am 05:53 Clear 42 5.6 17 -8.3 36 36 NW 3 6 29.94 1014 10 16.09344 0 0
6:53 am 06:53 Sunny 41 5 19 -7.2 41 41 NW 3 6 29.94 1014 10 16.09344 0 0
7:53 am 07:53 Sunny 47 8.3 18 -7.8 31 31 NNE 5 7 29.94 1014 10 16.09344 0 0
8:53 am 08:53 Sunny 52 11.1 14 -10 22 22 N 6 9 29.91 1013 10 16.09344 0 0
9:53 am 09:53 Sunny 55 12.8 13 -10.6 19 19 N 5 7 29.91 1013 10 16.09344 0 0
10:53 am 10:53 Sunny 57 13.9 14 -10 18 18 E 9 15 29.88 1012 10 16.09344 0 0
11:53 am 11:53 Sunny 60 15.6 15 -9.4 17 17 NE 6 9 29.88 1012 10 16.09344 0 0
12:53 pm 12:53 Sunny 62 16.7 16 -8.9 17 17 E 6 9 29.85 1011 10 16.09344 0 0
1:53 pm 13:53 Mostly Sunny 64 17.8 17 -8.3 16 16 NE 7 11 29.83 1010 10 16.09344 0 0
2:53 pm 14:53 Cloudy 63 17.2 16 -8.9 16 16 E 7 11 29.85 1011 10 16.09344 0 0
3:53 pm 15:53 Cloudy 63 17.2 17 -8.3 17 17 E 7 11 29.85 1011 10 16.09344 0 0
4:53 pm 16:53 Cloudy 63 17.2 15 -9.4 15 15 NNE 3 6 29.88 1012 10 16.09344 0 0
5:53 pm 17:53 Cloudy 60 15.6 25 -3.9 26 26 NNW 17 28 29.88 1012 10 16.09344 0 0
6:53 pm 18:53 Mostly Cloudy 59 15 29 -1.7 32 32 NNW 15 24 29.91 1013 10 16.09344 0 0
7:53 pm 19:53 Partly Cloudy 56 13.3 33 0.6 42 42 WNW 5 7 29.85 1011 10 16.09344 0 0
8:53 pm 20:53 Mostly Clear 55 12.8 30 -1.1 38 38 SW 6 9 29.85 1011 10 16.09344 0 0
9:53 pm 21:53 Clear 53 11.7 29 -1.7 40 40 S 5 7 29.83 1010 10 16.09344 0 0
10:53 pm 22:53 Clear 51 10.6 32 0 48 48 NNE 5 7 29.83 1010 10 16.09344 0 0
11:53 pm 23:53 Clear 49 9.4 31 -0.6 50 50 Calm 29.8 1009 10 16.09344 0 0

Powered by AerisWeather